1497675600.87,24428,16.13,73318.8,-1.97,-2.51,-2.59,0,*5F
1497675602.1,24429,16.13,73318.5,-1.97,-2.59,-2.59,0,*56
1497675603.37,24430,16.13,73322.3,-1.95,-2.59,-2.59,0,*5C
1497675604.64,24431,16.13,73318.5,-1.95,-2.59,-2.51,0,*55
1497675605.89,24432,16.13,73322.5,-1.93,-2.55,-2.55,0,*58
1497675607.16,24433,16.13,73318.8,-1.95,-2.51,-2.51,0,*5F
1497675608.41,24434,16.06,73312.3,-1.93,-2.67,-2.67,0,*5E
1497675609.63,24435,16.13,73316.0,-1.93,-2.83,-2.75,0,*56
1497675610.82,24436,16.13,73312.3,-1.93,-2.95,-2.87,0,*5F
1497675612.02,24437,16.13,73310.8,-1.93,-3.07,-2.99,0,*5B
1497675613.24,24438,16.13,73316.3,-1.91,-3.19,-3.19,0,*50
1497675614.45,24439,16.13,73304.0,-1.95,-3.15,-3.15,0,*55
1497675615.67,24440,16.13,73308.0,-1.95,-3.15,-3.15,0,*5B
1497675616.89,24441,16.13,73306.3,-1.95,-2.99,-2.99,0,*5A
1497675618.12,24442,16.13,73292.3,-1.95,-2.99,-2.99,0,*59
1497675619.36,24443,16.13,73298.8,-1.93,-2.75,-2.75,0,*5E
1497675620.64,24444,16.13,73302.3,-1.95,-2.75,-2.71,0,*5B
1497675621.86,24445,16.13,73310.8,-1.95,-2.87,-2.87,0,*5E
1497675623.05,24446,16.13,73312.0,-1.93,-3.07,-3.07,0,*5B
1497675624.26,24447,16.13,73306.3,-1.95,-3.03,-3.15,0,*5B
1497675625.48,24448,16.13,73282.3,-1.95,-3.15,-3.23,0,*56
1497675626.67,24449,16.13,73292.3,-1.97,-3.03,-2.99,0,*52
1497675627.92,24450,16.13,73304.0,-1.95,-2.79,-2.75,0,*56
1497675629.13,24451,16.13,73276.0,-1.95,-2.87,-2.87,0,*5B
1497675630.35,24452,16.13,73306.8,-1.95,-2.99,-2.91,0,*50
1497675631.57,24453,16.13,73286.5,-1.95,-3.03,-2.99,0,*5B
1497675632.79,24454,16.13,73304.0,-1.95,-2.99,-2.91,0,*56
1497675634.01,24455,16.13,73304.3,-1.95,-3.11,-3.11,0,*5F
1497675635.19,24456,16.13,73306.0,-1.97,-2.87,-2.91,0,*59
1497675636.41,24457,16.13,73300.8,-1.95,-2.79,-2.79,0,*5D
1497675637.68,24458,16.13,73306.3,-1.95,-2.71,-2.75,0,*56
1497675638.93,24459,16.13,73308.8,-1.97,-2.71,-2.63,0,*52
1497675640.2,24460,16.13,73312.0,-1.95,-2.63,-2.59,0,*50
1497675641.47,24461,16.13,73302.5,-1.95,-2.75,-2.75,0,*58
1497675642.69,24462,16.13,73306.3,-1.95,-2.99,-2.91,0,*53
1497675643.9,24463,16.13,73296.5,-1.95,-2.91,-2.91,0,*5A
1497675645.12,24464,16.13,73300.0,-1.95,-2.79,-2.79,0,*5D
1497675646.39,24465,16.13,73304.0,-1.95,-2.71,-2.71,0,*5C
1497675647.67,24466,16.13,73316.3,-1.95,-2.63,-2.63,0,*5F
1497675648.94,24467,16.13,73314.5,-1.95,-2.59,-2.51,0,*56
1497675650.22,24468,16.13,73314.5,-1.95,-2.51,-2.51,0,*51
1497675651.47,24469,16.13,73316.5,-1.93,-2.51,-2.51,0,*56
1497675652.7,24470,16.13,73314.5,-1.93,-2.59,-2.59,0,*5E
1497675653.95,24471,16.13,73328.3,-1.93,-2.67,-2.67,0,*5F
1497675655.19,24472,16.13,73310.5,-1.93,-2.67,-2.67,0,*5C
1497675656.44,24473,16.13,73316.3,-1.93,-2.67,-2.67,0,*5D
1497675657.68,24474,16.13,73322.5,-1.93,-2.55,-2.55,0,*5A
1497675658.93,24475,16.13,73324.8,-1.93,-2.55,-2.47,0,*58
1497675660.2,24476,16.13,73318.0,-1.91,-2.71,-2.71,0,*5A
1497675661.39,24477,16.13,73316.8,-1.93,-2.83,-2.83,0,*59
1497675662.61,24478,16.13,73312.0,-1.91,-2.87,-2.87,0,*54
1497675663.8,24479,16.13,73302.8,-1.93,-2.83,-2.83,0,*57
1497675665.02,24480,16.13,73308.0,-1.91,-2.87,-2.87,0,*53
1497675666.23,24481,16.13,73292.3,-1.91,-2.87,-2.87,0,*52
1497675667.48,24482,16.13,73298.8,-1.93,-2.71,-2.67,0,*54
1497675668.72,24483,16.13,73302.8,-1.93,-2.55,-2.59,0,*5E
1497675669.94,24484,16.13,73300.5,-1.93,-2.55,-2.43,0,*52
1497675671.21,24485,16.13,73314.3,-1.91,-2.55,-2.47,0,*55
1497675672.46,24486,16.13,73326.3,-1.93,-2.47,-2.47,0,*57
1497675673.74,24487,16.13,73316.3,-1.91,-2.47,-2.47,0,*54
1497675675.01,24488,16.13,73316.5,-1.91,-2.59,-2.47,0,*54
1497675676.28,24489,16.13,73314.0,-1.91,-2.59,-2.55,0,*56
1497675677.52,24490,16.13,73310.0,-1.93,-2.59,-2.55,0,*5C
1497675678.74,24491,16.13,73316.3,-1.91,-2.43,-2.43,0,*53
1497675679.96,24492,16.13,73322.0,-1.91,-2.35,-2.35,0,*50
1497675681.18,24493,16.13,73318.8,-1.91,-2.43,-2.35,0,*50
1497675682.36,24494,16.13,73318.5,-1.89,-2.39,-2.43,0,*52
1497675683.57,24495,16.13,73320.5,-1.87,-2.39,-2.39,0,*50
1497675684.76,24496,16.13,73326.5,-1.89,-2.39,-2.39,0,*5D
1497675685.98,24497,16.13,73328.5,-1.87,-2.35,-2.35,0,*52
1497675687.19,24498,16.13,73330.8,-1.87,-2.39,-2.39,0,*5D
1497675688.47,24499,16.13,73324.8,-1.87,-2.63,-2.63,0,*5C
1497675689.71,24500,16.13,73322.5,-1.89,-2.67,-2.67,0,*53
1497675690.98,24501,16.13,73322.5,-1.87,-2.63,-2.63,0,*5C
1497675692.25,24502,16.13,73320.8,-1.87,-2.75,-2.63,0,*58
1497675693.5,24503,16.13,73324.5,-1.89,-2.71,-2.71,0,*50
1497675694.77,24504,16.13,73322.8,-1.87,-2.59,-2.59,0,*59
1497675695.98,24505,16.13,73328.8,-1.87,-2.39,-2.35,0,*54
1497675697.19,24506,16.06,73324.5,-1.87,-2.27,-2.23,0,*5F
1497675698.41,24507,16.13,73328.3,-1.87,-2.23,-2.15,0,*5F
1497675699.62,24508,16.13,73330.5,-1.87,-2.27,-2.27,0,*55
1497675700.84,24509,16.13,73330.5,-1.85,-2.47,-2.39,0,*5F
1497675702.06,24510,16.13,73334.0,-1.85,-2.47,-2.39,0,*57
1497675703.32,24511,16.13,73338.0,-1.85,-2.63,-2.51,0,*5E
1497675704.56,24512,16.13,73330.8,-1.85,-2.63,-2.63,0,*5C
1497675705.81,24513,16.13,73332.3,-1.85,-2.59,-2.51,0,*55
1497675707.0,24514,16.13,73330.8,-1.85,-2.39,-2.35,0,*56
1497675708.18,24515,16.13,73334.8,-1.85,-2.27,-2.27,0,*5B
1497675709.38,24516,16.13,73334.5,-1.85,-2.27,-2.23,0,*5C
1497675710.56,24517,16.13,73332.3,-1.85,-2.35,-2.27,0,*5A
1497675711.79,24518,16.13,73326.0,-1.83,-2.31,-2.35,0,*54
1497675712.98,24519,16.13,73328.5,-1.85,-2.35,-2.27,0,*54
1497675714.2,24520,16.13,73336.8,-1.83,-2.19,-2.23,0,*52
1497675715.45,24521,16.13,73334.3,-1.83,-2.19,-2.11,0,*52
1497675716.67,24522,16.13,73336.0,-1.83,-2.19,-2.19,0,*59
1497675717.89,24523,16.13,73336.5,-1.83,-2.19,-2.19,0,*58
1497675719.08,24524,16.13,73338.8,-1.81,-2.23,-2.19,0,*54
1497675720.29,24525,16.13,73336.8,-1.81,-2.19,-2.11,0,*54
1497675721.49,24526,16.13,73338.0,-1.81,-2.19,-2.23,0,*56
1497675722.68,24527,16.13,73336.3,-1.81,-2.35,-2.35,0,*5E
1497675723.87,24528,16.13,73334.3,-1.81,-2.35,-2.23,0,*56
1497675725.12,24529,16.13,73334.0,-1.81,-2.55,-2.55,0,*50
1497675726.36,24530,16.13,73334.8,-1.81,-2.59,-2.55,0,*54
1497675727.64,24531,16.13,73324.5,-1.77,-2.55,-2.51,0,*54
1497675728.89,24532,16.06,73316.5,-1.81,-2.63,-2.59,0,*53
1497675730.14,24533,16.13,73320.5,-1.81,-2.63,-2.59,0,*52
1497675731.38,24534,16.13,73320.3,-1.81,-2.55,-2.59,0,*50
1497675732.62,24535,16.13,73316.0,-1.81,-2.59,-2.59,0,*5D
1497675733.84,24536,16.13,73314.8,-1.81,-2.83,-2.71,0,*53
1497675735.05,24537,16.13,73312.0,-1.81,-2.83,-2.75,0,*56
1497675736.33,24538,16.13,73310.5,-1.83,-2.75,-2.71,0,*56
1497675737.58,24539,16.13,73312.5,-1.81,-2.63,-2.55,0,*54
1497675738.83,24540,16.13,73308.5,-1.81,-2.55,-2.47,0,*5C
1497675740.04,24541,16.13,73312.0,-1.83,-2.35,-2.43,0,*5D
1497675741.27,24542,16.13,73310.0,-1.83,-2.35,-2.31,0,*5B
1497675742.49,24543,16.13,73318.0,-1.83,-2.35,-2.19,0,*50
1497675743.68,24544,16.13,73316.8,-1.81,-2.19,-2.23,0,*52
1497675744.91,24545,16.13,73320.8,-1.81,-2.11,-2.19,0,*52
1497675746.19,24546,16.13,73318.8,-1.77,-2.11,-2.03,0,*53
1497675747.44,24547,16.13,73320.3,-1.81,-2.11,-2.03,0,*5B
1497675748.66,24548,16.13,73326.8,-1.77,-2.23,-2.15,0,*5B
1497675749.85,24549,16.13,73332.0,-1.81,-2.35,-2.35,0,*56
1497675751.07,24550,16.13,73330.3,-1.77,-2.39,-2.35,0,*5B
1497675752.3,24551,16.13,73330.3,-1.77,-2.35,-2.35,0,*56
1497675753.52,24552,16.13,73330.5,-1.77,-2.39,-2.35,0,*59
1497675754.74,24553,16.13,73330.0,-1.77,-2.35,-2.27,0,*57
1497675755.97,24554,16.13,73338.8,-1.77,-2.27,-2.23,0,*57
1497675757.25,24555,16.13,73342.0,-1.77,-2.11,-2.11,0,*52
1497675758.47,24556,16.13,73340.8,-1.77,-2.23,-2.15,0,*54
1497675759.75,24557,16.13,73348.5,-1.77,-2.51,-2.51,0,*50
1497675761.02,24558,16.13,73344.0,-1.73,-2.59,-2.51,0,*53
1497675762.28,24559,16.13,73348.0,-1.75,-2.55,-2.55,0,*5C
1497675763.56,24560,16.13,73350.0,-1.77,-2.55,-2.51,0,*50
1497675764.84,24561,16.13,73342.0,-1.77,-2.63,-2.63,0,*55
1497675766.12,24562,16.13,73338.3,-1.77,-2.75,-2.67,0,*55
1497675767.4,24563,16.13,73338.5,-1.77,-2.63,-2.67,0,*53
1497675768.68,24564,16.13,73336.3,-1.77,-2.63,-2.55,0,*55
1497675769.96,24565,16.13,73340.3,-1.77,-2.55,-2.63,0,*54
1497675771.24,24566,16.13,73338.3,-1.77,-2.67,-2.63,0,*56
1497675772.52,24567,16.13,73332.3,-1.77,-2.75,-2.75,0,*53
1497675773.74,24568,16.13,73322.3,-1.77,-2.79,-2.79,0,*5C
1497675774.97,24569,16.13,73326.8,-1.77,-2.79,-2.87,0,*5C
1497675776.17,24570,16.13,73318.8,-1.81,-2.95,-2.95,0,*5C
1497675777.36,24571,16.13,73318.8,-1.81,-2.87,-2.95,0,*5E
1497675778.58,24572,16.13,73312.0,-1.81,-2.75,-2.83,0,*57
1497675779.83,24573,16.13,73318.3,-1.81,-2.75,-2.75,0,*5F
1497675781.07,24574,16.13,73320.3,-1.81,-2.71,-2.71,0,*58
1497675782.32,24575,16.13,73318.0,-1.81,-2.63,-2.63,0,*59
1497675783.57,24576,16.13,73318.3,-1.81,-2.63,-2.63,0,*5A
1497675784.79,24577,16.13,73316.8,-1.81,-2.47,-2.43,0,*5F
1497675785.99,24578,16.13,73320.3,-1.81,-2.31,-2.23,0,*57
1497675787.23,24579,16.13,73316.0,-1.81,-2.59,-2.47,0,*5A
1497675788.52,24580,16.13,73312.3,-1.77,-2.51,-2.51,0,*5A
1497675789.76,24581,16.13,73322.3,-1.81,-2.55,-2.55,0,*52
1497675790.96,24582,16.13,73316.0,-1.81,-2.35,-2.31,0,*55
1497675792.18,24583,16.13,73310.3,-1.77,-2.27,-2.15,0,*58
1497675793.4,24584,16.13,73322.3,-1.77,-2.15,-2.15,0,*5E
1497675794.63,24585,16.13,73332.5,-1.77,-2.35,-2.27,0,*5C
1497675795.85,24586,16.13,73338.3,-1.77,-2.27,-2.27,0,*5C
1497675797.07,24587,16.13,73332.8,-1.77,-2.15,-2.15,0,*5D
1497675798.29,24588,16.13,73332.8,-1.77,-2.39,-2.35,0,*5E
1497675799.51,24589,16.13,73332.0,-1.77,-2.27,-2.27,0,*53
1497675800.71,24590,16.13,73320.3,-1.75,-2.23,-2.23,0,*59
1497675801.93,24591,16.13,73316.0,-1.75,-2.39,-2.47,0,*51
1497675803.16,24592,16.13,73320.8,-1.77,-2.23,-2.35,0,*5E
1497675804.36,24593,16.13,73320.0,-1.75,-2.15,-2.15,0,*5A
1497675805.55,24594,16.13,73334.0,-1.75,-2.39,-2.39,0,*5D
1497675806.8,24595,16.13,73328.0,-1.75,-2.75,-2.75,0,*5C
1497675808.0,24596,16.13,73324.5,-1.75,-3.11,-3.11,0,*5F
1497675809.2,24597,16.13,73322.0,-1.75,-2.91,-3.03,0,*54
1497675810.42,24598,16.13,73320.5,-1.77,-2.79,-2.79,0,*53
1497675811.7,24599,16.13,73320.3,-1.77,-2.67,-2.67,0,*52
1497675812.95,24600,16.13,73322.0,-1.81,-2.63,-2.63,0,*58
1497675814.22,24601,16.13,73320.0,-1.77,-2.67,-2.55,0,*51
1497675815.5,24602,16.13,73322.0,-1.77,-2.55,-2.55,0,*53
1497675816.72,24603,16.13,73334.8,-1.77,-2.39,-2.35,0,*5E
1497675818.0,24604,16.13,73328.5,-1.77,-2.67,-2.67,0,*55
1497675819.22,24605,16.13,73326.5,-1.77,-2.99,-2.87,0,*5B
1497675820.45,24606,16.13,73334.3,-1.77,-2.99,-2.99,0,*57
1497675821.65,24607,16.13,73324.5,-1.81,-3.11,-3.11,0,*5F
1497675822.84,24608,16.13,73334.3,-1.81,-3.31,-3.31,0,*50
1497675824.03,24609,16.13,73316.3,-1.81,-3.19,-3.19,0,*51
1497675825.22,24610,16.13,73320.3,-1.81,-3.07,-2.99,0,*5F
1497675826.44,24611,16.13,73328.3,-1.83,-3.11,-3.07,0,*5D
1497675827.67,24612,16.13,73324.3,-1.83,-3.11,-3.11,0,*59
1497675828.89,24613,16.13,73328.8,-1.83,-3.19,-3.11,0,*50
1497675830.08,24614,16.13,73332.8,-1.85,-3.11,-3.03,0,*5A
1497675831.3,24615,16.13,73332.5,-1.83,-3.07,-3.07,0,*5E
1497675832.48,24616,16.13,73334.3,-1.85,-3.23,-3.23,0,*5B
1497675833.67,24617,16.13,73334.0,-1.81,-3.11,-3.19,0,*56
1497675834.86,24618,16.13,73332.8,-1.85,-3.15,-3.15,0,*55
1497675836.05,24619,16.13,73330.3,-1.85,-3.03,-3.11,0,*57
1497675837.25,24620,16.13,73334.5,-1.85,-3.15,-3.11,0,*5A
1497675838.47,24621,16.13,73326.8,-1.83,-3.07,-3.07,0,*59
1497675839.66,24622,16.13,73320.3,-1.85,-3.15,-3.15,0,*5C
1497675840.85,24623,16.13,73326.3,-1.85,-2.99,-3.03,0,*5F
1497675842.07,24624,16.13,73332.3,-1.87,-2.79,-2.79,0,*58
1497675843.25,24625,16.13,73328.8,-1.85,-2.99,-2.91,0,*53
1497675844.44,24626,16.13,73320.0,-1.85,-2.79,-2.79,0,*58
1497675845.63,24627,16.13,73322.3,-1.85,-2.79,-2.79,0,*59
1497675846.87,24628,16.13,73320.8,-1.85,-2.67,-2.67,0,*56
1497675848.12,24629,16.13,73318.0,-1.85,-2.67,-2.67,0,*57
1497675849.36,24630,16.13,73326.8,-1.85,-2.75,-2.67,0,*5C
1497675850.61,24631,16.13,73330.0,-1.85,-2.67,-2.67,0,*5E
1497675851.85,24632,16.13,73330.5,-1.85,-2.67,-2.67,0,*5D
1497675853.1,24633,16.13,73326.5,-1.85,-2.75,-2.75,0,*5C
1497675854.32,24634,16.13,73330.0,-1.85,-2.87,-2.75,0,*56
1497675855.59,24635,16.13,73324.3,-1.83,-2.75,-2.71,0,*58
1497675856.86,24636,16.13,73328.8,-1.87,-2.67,-2.67,0,*5B
1497675858.11,24637,16.13,73328.8,-1.85,-2.75,-2.63,0,*5F
1497675859.35,24638,16.13,73330.5,-1.85,-2.75,-2.67,0,*54
1497675860.63,24639,16.13,73328.3,-1.83,-2.63,-2.71,0,*53
1497675861.91,24640,16.13,73328.3,-1.83,-2.63,-2.63,0,*5E
1497675863.19,24641,16.13,73328.3,-1.83,-2.63,-2.63,0,*5F
1497675864.43,24642,16.13,73324.8,-1.85,-2.55,-2.59,0,*56
1497675865.62,24643,16.13,73324.0,-1.85,-2.39,-2.39,0,*5B
1497675866.84,24644,16.13,73336.3,-1.83,-2.35,-2.35,0,*5A
1497675868.07,24645,16.13,73328.5,-1.83,-2.31,-2.31,0,*5B
1497675869.35,24646,16.13,73318.3,-1.83,-2.47,-2.47,0,*58
1497675870.63,24647,16.13,73306.5,-1.83,-2.55,-2.47,0,*5A
1497675871.87,24648,16.13,73306.8,-1.83,-2.19,-2.11,0,*5E
1497675873.12,24649,16.13,73328.8,-1.81,-2.07,-2.11,0,*52
1497675874.36,24650,16.13,73328.0,-1.81,-1.91,-1.99,0,*55
1497675875.56,24651,16.13,73334.5,-1.81,-2.23,-2.31,0,*5F
1497675876.78,24652,16.13,73336.5,-1.77,-2.39,-2.39,0,*56
1497675878.0,24653,16.13,73346.0,-1.81,-2.47,-2.43,0,*5A
1497675879.19,24654,16.13,73334.3,-1.75,-2.39,-2.35,0,*5E
1497675880.45,24655,16.13,73324.8,-1.75,-2.51,-2.51,0,*53
1497675881.68,24656,16.13,73332.8,-1.77,-2.35,-2.35,0,*52
1497675882.87,24657,16.13,73344.5,-1.75,-2.23,-2.23,0,*51
1497675884.13,24658,16.13,73344.3,-1.75,-2.11,-2.11,0,*5E
1497675885.39,24659,16.13,73338.8,-1.75,-1.99,-1.99,0,*5F
1497675886.66,24660,16.13,73332.3,-1.73,-1.95,-1.91,0,*57
1497675887.93,24661,16.13,73334.8,-1.73,-1.95,-1.99,0,*5E
1497675889.18,24662,16.13,73342.3,-1.75,-1.99,-1.87,0,*58
1497675890.46,24663,16.13,73338.5,-1.73,-1.99,-1.87,0,*5F
1497675891.73,24664,16.13,73340.0,-1.73,-1.99,-1.95,0,*5B
1497675893.01,24665,16.13,73342.8,-1.73,-2.11,-2.07,0,*51
1497675894.23,24666,16.13,73338.5,-1.73,-2.23,-2.23,0,*55
1497675895.45,24667,16.13,73334.8,-1.73,-2.23,-2.23,0,*54
1497675896.67,24668,16.13,73332.3,-1.73,-2.35,-2.31,0,*5F
1497675897.89,24669,16.13,73332.0,-1.71,-2.47,-2.43,0,*5C
1497675899.15,24670,16.13,73332.8,-1.71,-2.47,-2.47,0,*50
1497675900.41,24671,16.13,73336.8,-1.71,-2.51,-2.51,0,*51
1497675901.66,24672,16.13,73338.3,-1.71,-2.51,-2.51,0,*52
1497675902.94,24673,16.13,73330.8,-1.73,-2.51,-2.51,0,*51
1497675904.15,24674,16.13,73326.0,-1.73,-2.43,-2.43,0,*56
1497675905.37,24675,16.13,73324.5,-1.73,-2.19,-2.19,0,*57
1497675906.64,24676,16.13,73330.3,-1.73,-2.07,-1.99,0,*50
1497675907.9,24677,16.13,73334.8,-1.71,-2.11,-2.11,0,*57
1497675909.15,24678,16.13,73328.5,-1.69,-2.07,-2.23,0,*57
1497675910.41,24679,16.13,73328.3,-1.71,-2.47,-2.51,0,*5E
1497675911.67,24680,16.13,73324.5,-1.71,-2.51,-2.51,0,*5F
1497675912.92,24681,16.13,73330.5,-1.71,-2.63,-2.63,0,*5E
1497675914.17,24682,16.13,73328.5,-1.71,-2.51,-2.59,0,*55
1497675915.37,24683,16.13,73328.5,-1.71,-2.43,-2.43,0,*5C
1497675916.56,24684,16.13,73320.8,-1.71,-2.35,-2.43,0,*5A
1497675917.81,24685,16.13,73330.0,-1.71,-2.59,-2.51,0,*52
1497675919.07,24686,16.13,73324.5,-1.71,-2.51,-2.51,0,*59
1497675920.32,24687,16.13,73314.0,-1.75,-2.67,-2.63,0,*58
1497675921.59,24688,16.13,73326.3,-1.73,-2.47,-2.47,0,*55
1497675922.87,24689,16.13,73330.8,-1.73,-2.51,-2.47,0,*53
1497675924.08,24690,16.13,73334.0,-1.73,-2.43,-2.43,0,*5C
1497675925.29,24691,16.13,73334.5,-1.71,-2.31,-2.31,0,*5F
1497675926.48,24692,16.13,73338.3,-1.71,-2.19,-2.19,0,*5C
1497675927.68,24693,16.13,73344.0,-1.71,-2.23,-2.23,0,*5D
1497675928.89,24694,16.13,73344.5,-1.71,-2.35,-2.31,0,*5E
1497675930.14,24695,16.13,73342.3,-1.71,-2.63,-2.63,0,*5B
1497675931.42,24696,16.13,73338.5,-1.73,-2.71,-2.75,0,*5E
1497675932.67,24697,16.13,73338.3,-1.71,-2.51,-2.51,0,*59
1497675933.89,24698,16.13,73342.3,-1.73,-2.31,-2.35,0,*50
1497675935.15,24699,16.13,73338.0,-1.71,-2.11,-2.11,0,*57
1497675936.4,24700,16.13,73336.5,-1.71,-2.07,-2.07,0,*56
1497675937.67,24701,16.13,73336.3,-1.69,-2.03,-1.95,0,*52
1497675938.91,24702,16.13,73334.8,-1.71,-1.95,-1.95,0,*54
1497675940.15,24703,16.13,73334.3,-1.71,-1.95,-1.95,0,*55
1497675941.42,24704,16.13,73328.0,-1.69,-1.95,-1.95,0,*5B
1497675942.68,24705,16.13,73338.0,-1.71,-1.99,-1.99,0,*53
1497675943.94,24706,16.13,73330.5,-1.69,-1.95,-1.95,0,*59
1497675945.2,24707,16.13,73332.0,-1.71,-1.99,-2.07,0,*55
1497675946.44,24708,16.13,73324.3,-1.67,-1.95,-1.95,0,*59
1497675947.69,24709,16.13,73326.3,-1.67,-1.91,-1.83,0,*5B
1497675948.94,24710,16.13,73338.0,-1.67,-1.91,-1.91,0,*50
1497675950.18,24711,16.13,73334.8,-1.67,-1.95,-1.95,0,*51
1497675951.45,24712,16.13,73332.5,-1.65,-1.91,-1.99,0,*58
1497675952.73,24713,16.13,73342.3,-1.65,-1.87,-1.99,0,*5E
1497675953.96,24714,16.13,73338.0,-1.65,-2.15,-2.23,0,*53
1497675955.17,24715,16.13,73334.3,-1.65,-2.43,-2.39,0,*5A
1497675956.42,24716,16.13,73326.5,-1.67,-2.59,-2.55,0,*5A
1497675957.64,24717,16.13,73338.5,-1.65,-2.43,-2.43,0,*55
1497675958.89,24718,16.13,73330.0,-1.67,-2.47,-2.55,0,*5B
1497675960.12,24719,16.13,73332.3,-1.67,-2.47,-2.43,0,*5D
1497675961.32,24720,16.13,73324.3,-1.67,-2.27,-2.19,0,*5E
1497675962.51,24721,16.13,73324.5,-1.67,-2.43,-2.43,0,*52
1497675963.73,24722,16.13,73338.3,-1.65,-2.35,-2.35,0,*53
1497675964.95,24723,16.13,73346.0,-1.65,-2.43,-2.35,0,*53
1497675966.2,24724,16.13,73344.8,-1.67,-2.55,-2.59,0,*5B
1497675967.45,24725,16.13,73352.0,-1.67,-2.55,-2.47,0,*55
1497675968.7,24726,16.13,73348.0,-1.67,-2.67,-2.71,0,*52
1497675969.89,24727,16.13,73344.0,-1.67,-2.83,-2.83,0,*54
1497675971.12,24728,16.13,73344.0,-1.67,-2.71,-2.79,0,*53
1497675972.31,24729,16.13,73340.3,-1.67,-2.79,-2.83,0,*5F
1497675973.59,24730,16.13,73344.3,-1.69,-2.71,-2.71,0,*5C
1497675974.83,24731,16.13,73344.8,-1.71,-2.59,-2.59,0,*54
1497675976.09,24732,16.13,73348.3,-1.71,-2.51,-2.51,0,*57
1497675977.32,24733,16.13,73352.8,-1.69,-2.31,-2.31,0,*5F
1497675978.54,24734,16.13,73358.3,-1.69,-2.19,-2.19,0,*58
1497675979.76,24735,16.13,73352.5,-1.69,-2.31,-2.39,0,*51
1497675981.04,24736,16.13,73350.0,-1.69,-2.47,-2.47,0,*5A
1497675982.31,24737,16.13,73328.8,-1.69,-2.59,-2.59,0,*5B
1497675983.59,24738,16.13,73340.5,-1.69,-2.47,-2.47,0,*54
1497675984.78,24739,16.13,73328.0,-1.71,-2.43,-2.43,0,*5C
1497675986.0,24740,16.13,73314.0,-1.69,-2.43,-2.43,0,*5B
1497675987.2,24741,16.13,73320.8,-1.71,-2.43,-2.43,0,*53
1497675988.41,24742,16.13,73328.3,-1.69,-2.43,-2.43,0,*59
1497675989.69,24743,16.13,73328.3,-1.69,-2.67,-2.67,0,*58
1497675990.96,24744,16.13,73326.5,-1.69,-2.55,-2.67,0,*5E
1497675992.17,24745,16.13,73334.8,-1.71,-2.31,-2.31,0,*57
1497675993.42,24746,16.13,73340.0,-1.69,-2.03,-2.15,0,*5A
1497675994.67,24747,16.13,73336.0,-1.67,-2.07,-2.03,0,*56
1497675995.91,24748,16.13,73338.5,-1.67,-1.95,-1.95,0,*5D
1497675997.16,24749,16.13,73344.0,-1.67,-1.95,-1.91,0,*58
1497675998.4,24750,16.13,73346.0,-1.67,-1.91,-1.91,0,*54
1497675999.61,24751,16.13,73334.5,-1.67,-2.31,-2.31,0,*55
1497676000.83,24752,16.13,73336.5,-1.65,-2.39,-2.39,0,*54
1497676002.07,24753,16.13,73336.0,-1.65,-2.51,-2.39,0,*5B
1497676003.33,24754,16.13,73332.8,-1.67,-2.47,-2.47,0,*50
1497676004.55,24755,16.13,73324.5,-1.67,-2.71,-2.79,0,*59
1497676005.75,24756,16.13,73328.5,-1.67,-2.91,-3.03,0,*58
1497676006.96,24757,16.13,73322.8,-1.69,-2.83,-2.83,0,*5D
1497676008.18,24758,16.13,73322.3,-1.69,-2.83,-2.79,0,*57
1497676009.45,24759,16.13,73332.8,-1.69,-2.71,-2.59,0,*59
1497676010.72,24760,16.13,73328.8,-1.69,-2.67,-2.55,0,*58
1497676011.99,24761,16.13,73334.8,-1.69,-2.59,-2.59,0,*58
1497676013.26,24762,16.13,73332.0,-1.69,-2.67,-2.59,0,*56
1497676014.54,24763,16.13,73328.5,-1.69,-2.59,-2.67,0,*57
1497676015.81,24764,16.13,73326.5,-1.69,-2.47,-2.47,0,*5D
1497676017.06,24765,16.13,73324.0,-1.69,-2.43,-2.47,0,*58
1497676018.28,24766,16.13,73320.8,-1.69,-2.39,-2.39,0,*5F
1497676019.49,24767,16.13,73330.8,-1.71,-2.31,-2.31,0,*57
1497676020.71,24768,16.13,73332.0,-1.69,-2.15,-2.15,0,*51
1497676021.99,24769,16.13,73312.5,-1.69,-2.07,-2.07,0,*50
1497676023.26,24770,16.13,73310.3,-1.69,-2.03,-1.95,0,*54
1497676024.5,24771,16.13,73318.8,-1.67,-1.95,-1.95,0,*57
1497676025.74,24772,16.13,73338.0,-1.67,-2.03,-1.95,0,*58
1497676027.02,24773,16.13,73334.3,-1.65,-2.03,-1.99,0,*57
1497676028.27,24774,16.13,73330.5,-1.67,-2.07,-2.03,0,*56
1497676029.52,24775,16.13,73344.0,-1.67,-2.03,-1.95,0,*5F
1497676030.77,24776,16.13,73334.8,-1.67,-2.07,-2.07,0,*50
1497676032.05,24777,16.13,73334.5,-1.65,-1.99,-1.99,0,*53
1497676033.33,24778,16.13,73338.8,-1.65,-1.99,-1.91,0,*54
1497676034.61,24779,16.13,73340.5,-1.65,-2.03,-1.91,0,*55
1497676035.86,24780,16.13,73340.3,-1.67,-2.03,-2.03,0,*59
1497676037.11,24781,16.13,73336.0,-1.63,-1.91,-1.87,0,*5B
1497676038.38,24782,16.13,73334.3,-1.61,-1.87,-1.87,0,*5D
1497676039.66,24783,16.13,73340.5,-1.61,-1.83,-1.83,0,*5C
1497676040.94,24784,16.13,73340.5,-1.61,-1.87,-1.83,0,*5F
1497676042.19,24785,16.13,73338.0,-1.63,-1.83,-1.83,0,*58
1497676043.42,24786,16.13,73338.0,-1.63,-1.83,-1.75,0,*52
1497676044.7,24787,16.13,73338.0,-1.61,-1.83,-1.83,0,*58
1497676045.95,24788,16.13,73338.8,-1.61,-1.87,-1.75,0,*5A
1497676047.15,24789,16.13,73334.3,-1.59,-1.79,-1.71,0,*55
1497676048.37,24790,16.13,73336.5,-1.59,-1.71,-1.67,0,*52
1497676049.57,24791,16.13,73346.5,-1.59,-1.67,-1.67,0,*54
1497676050.78,24792,16.13,73338.8,-1.55,-1.71,-1.71,0,*5B
1497676051.98,24793,16.13,73340.8,-1.59,-1.79,-1.79,0,*56
1497676053.23,24794,16.13,73342.0,-1.59,-1.91,-1.83,0,*52
1497676054.47,24795,16.13,73344.8,-1.59,-1.95,-1.95,0,*50
1497676055.73,24796,16.13,73344.3,-1.59,-2.07,-2.03,0,*57
1497676056.96,24797,16.13,73350.5,-1.55,-2.15,-2.07,0,*5D
1497676058.18,24798,16.13,73350.5,-1.59,-2.15,-2.07,0,*5E
1497676059.38,24799,16.13,73354.8,-1.55,-2.15,-2.19,0,*5C
1497676060.58,24800,16.13,73358.3,-1.55,-2.19,-2.19,0,*5F
1497676061.78,24801,16.13,73358.5,-1.55,-2.35,-2.35,0,*5E
1497676062.97,24802,16.13,73356.0,-1.55,-2.35,-2.35,0,*5D
1497676064.17,24803,16.13,73354.5,-1.59,-2.15,-2.15,0,*50
1497676065.43,24804,16.13,73354.5,-1.55,-2.03,-2.03,0,*5B
1497676066.68,24805,16.13,73364.8,-1.59,-1.91,-1.91,0,*56
1497676067.88,24806,16.13,73360.8,-1.59,-1.79,-1.79,0,*55
1497676069.12,24807,16.13,73364.0,-1.55,-2.03,-1.95,0,*54
1497676070.32,24808,16.13,73354.3,-1.55,-2.19,-2.15,0,*5B
1497676071.54,24809,16.13,73354.8,-1.55,-2.15,-2.03,0,*51
1497676072.79,24810,16.13,73356.8,-1.55,-2.03,-1.91,0,*56
1497676074.04,24811,16.13,73356.3,-1.59,-1.91,-1.95,0,*57
1497676075.27,24812,16.13,73354.8,-1.55,-2.15,-2.07,0,*5F
1497676076.52,24813,16.13,73348.0,-1.55,-2.55,-2.55,0,*5D
1497676077.77,24814,16.13,73346.5,-1.59,-2.71,-2.67,0,*51
1497676079.03,24815,16.13,73364.5,-1.59,-2.47,-2.47,0,*57
1497676080.29,24816,16.13,73356.0,-1.59,-2.55,-2.47,0,*57
1497676081.48,24817,16.13,73358.8,-1.55,-2.79,-2.79,0,*59
1497676082.68,24818,16.13,73358.0,-1.59,-2.83,-2.83,0,*5A
1497676083.93,24819,16.13,73362.8,-1.59,-2.67,-2.67,0,*5B
1497676085.18,24820,16.13,73354.8,-1.59,-2.59,-2.59,0,*51
1497676086.43,24821,16.13,73358.3,-1.59,-2.59,-2.59,0,*50
1497676087.68,24822,16.13,73354.3,-1.63,-2.63,-2.63,0,*5A
1497676088.94,24823,16.13,73354.5,-1.63,-2.63,-2.63,0,*5B
1497676090.16,24824,16.13,73354.3,-1.61,-2.87,-2.87,0,*5E
1497676091.37,24825,16.13,73362.0,-1.63,-2.95,-2.87,0,*5E
1497676092.57,24826,16.13,73362.8,-1.63,-2.99,-2.95,0,*52
1497676093.8,24827,16.13,73358.5,-1.65,-2.99,-2.99,0,*59
1497676095.02,24828,16.13,73356.3,-1.65,-2.79,-2.87,0,*57
1497676096.29,24829,16.13,73354.0,-1.65,-2.75,-2.75,0,*57
1497676097.57,24830,16.13,73360.8,-1.65,-2.55,-2.63,0,*5A
1497676098.85,24831,16.13,73358.5,-1.65,-2.51,-2.51,0,*5E
1497676100.06,24832,16.13,73360.8,-1.65,-2.79,-2.79,0,*5D
1497676101.29,24833,16.13,73354.3,-1.65,-2.99,-3.03,0,*5E
1497676102.51,24834,16.13,73350.0,-1.65,-2.99,-2.99,0,*5B
1497676103.72,24835,16.13,73350.0,-1.67,-2.95,-2.95,0,*58
1497676104.93,24836,16.13,73352.5,-1.67,-2.95,-2.95,0,*5B
1497676106.13,24837,16.13,73366.5,-1.67,-2.95,-2.95,0,*5A
1497676107.34,24838,16.13,73364.0,-1.67,-2.95,-3.03,0,*5B
1497676108.56,24839,16.13,73344.5,-1.69,-3.03,-3.07,0,*5E
1497676109.79,24840,16.13,73344.5,-1.69,-3.15,-3.07,0,*57
1497676111.01,24841,16.13,73340.3,-1.69,-2.83,-2.83,0,*55